1516251600.41,52216,8.06,71648.3,-16.51,-17.07,-17.25,0,*61
1516251601.71,52217,8.06,71648.5,-16.51,-17.21,-17.11,0,*63
1516251603.02,52218,8.06,71638.0,-16.51,-17.07,-17.07,0,*6F
1516251604.31,52219,8.06,71632.3,-16.53,-17.17,-17.11,0,*6A
1516251605.59,52220,8.06,71650.0,-16.53,-17.11,-17.25,0,*61
1516251606.88,52221,8.06,71648.0,-16.53,-17.17,-17.17,0,*67
1516251608.17,52222,8.06,71644.8,-16.53,-17.17,-17.11,0,*62
1516251609.47,52223,8.06,71656.3,-16.51,-17.11,-17.21,0,*64
1516251610.76,52224,8.06,71638.5,-16.53,-17.17,-17.25,0,*63
1516251612.04,52225,8.06,71626.8,-16.53,-17.25,-17.25,0,*63
1516251613.33,52226,8.06,71650.3,-16.53,-17.25,-17.17,0,*61
1516251614.61,52227,8.06,71636.0,-16.53,-17.25,-17.17,0,*60
1516251615.9,52228,8.06,71642.8,-16.53,-17.25,-17.17,0,*6F
1516251617.18,52229,8.06,71648.0,-16.53,-17.11,-17.17,0,*69
1516251618.47,52230,8.06,71654.8,-16.53,-17.17,-17.11,0,*61
1516251619.76,52231,8.06,71664.3,-16.53,-17.17,-17.17,0,*66
1516251621.05,52232,8.06,71664.8,-16.53,-17.17,-17.17,0,*65
1516251622.35,52233,8.06,71678.3,-16.51,-17.07,-17.11,0,*61
1516251623.65,52234,8.06,71680.0,-16.51,-17.11,-17.11,0,*61
1516251624.95,52235,8.06,71680.0,-16.53,-17.17,-17.07,0,*63
1516251626.25,52236,8.06,71678.0,-16.51,-17.25,-17.11,0,*64
1516251627.52,52237,8.06,71674.8,-16.55,-17.17,-17.11,0,*60
1516251628.77,52238,8.06,71676.8,-16.53,-17.25,-17.31,0,*6A
1516251630.06,52239,8.06,71672.3,-16.53,-17.25,-17.17,0,*6F
1516251631.36,52240,8.06,71670.0,-16.51,-17.11,-17.21,0,*61
1516251632.65,52241,8.06,71664.0,-16.51,-17.11,-17.21,0,*60
1516251633.95,52242,8.06,71658.5,-16.51,-17.21,-17.21,0,*60
1516251635.24,52243,8.06,71652.3,-16.53,-17.11,-17.11,0,*63
1516251636.52,52244,8.06,71646.8,-16.53,-17.11,-17.17,0,*62
1516251637.81,52245,8.06,71640.8,-16.51,-17.11,-17.17,0,*61
1516251639.11,52246,8.06,71638.3,-16.51,-17.11,-17.11,0,*64
1516251640.4,52247,8.06,71638.5,-16.53,-17.25,-17.11,0,*60
1516251641.69,52248,8.06,71638.8,-16.53,-17.17,-17.17,0,*68
1516251642.99,52249,8.06,71636.0,-16.51,-17.11,-17.07,0,*6C
1516251644.28,52250,8.06,71638.8,-16.53,-17.17,-17.17,0,*61
1516251645.57,52251,8.06,71638.0,-16.53,-17.17,-17.17,0,*60
1516251646.86,52252,8.06,71640.5,-16.53,-17.17,-17.17,0,*63
1516251648.16,52253,8.06,71650.5,-16.51,-17.07,-17.07,0,*60
1516251649.45,52254,8.06,71650.3,-16.53,-17.11,-17.17,0,*63
1516251650.73,52255,8.06,71654.3,-16.53,-17.11,-17.17,0,*62
1516251652.01,52256,8.06,71650.8,-16.53,-17.11,-17.17,0,*61
1516251653.29,52257,8.06,71650.5,-16.53,-17.11,-17.17,0,*60
1516251654.59,52258,8.06,71648.8,-16.51,-17.11,-17.11,0,*6B
1516251655.89,52259,8.06,71650.5,-16.51,-17.07,-17.11,0,*6D
1516251657.16,52260,8.06,71650.3,-16.51,-17.07,-16.97,0,*68
1516251658.45,52261,8.0,71648.3,-16.53,-17.03,-17.11,0,*60
1516251659.72,52262,8.06,71652.3,-16.53,-16.97,-17.07,0,*68
1516251661.0,52263,8.06,71654.3,-16.51,-16.97,-17.07,0,*6B
1516251662.28,52264,8.06,71656.8,-16.53,-17.11,-17.03,0,*65
1516251663.59,52265,8.06,71640.0,-16.51,-17.07,-17.07,0,*65
1516251664.88,52266,8.06,71638.5,-16.53,-17.17,-17.17,0,*64
1516251666.17,52267,8.06,71642.3,-16.53,-17.11,-17.07,0,*62
1516251667.48,52268,8.06,71648.3,-16.51,-17.07,-17.07,0,*68
1516251668.76,52269,8.06,71650.5,-16.53,-17.11,-17.11,0,*6B
1516251670.07,52270,8.06,71650.8,-16.51,-17.07,-17.07,0,*61
1516251671.38,52271,8.06,71634.8,-16.51,-17.07,-17.07,0,*60
1516251672.68,52272,8.06,71636.5,-16.51,-17.07,-17.11,0,*64
1516251673.98,52273,8.06,71628.0,-16.51,-17.21,-17.11,0,*61
1516251675.26,52274,8.06,71632.3,-16.53,-17.11,-17.11,0,*67
1516251676.55,52275,8.06,71632.0,-16.53,-17.25,-17.11,0,*61
1516251677.84,52276,8.06,71622.0,-16.53,-17.17,-17.17,0,*65
1516251679.12,52277,8.06,71622.3,-16.53,-17.25,-17.17,0,*65
1516251680.4,52278,8.06,71620.0,-16.51,-17.21,-17.31,0,*68
1516251681.69,52279,8.06,71630.3,-16.51,-17.25,-17.21,0,*6C
1516251682.99,52280,8.06,71624.5,-16.51,-17.21,-17.21,0,*6E
1516251684.29,52281,8.06,71632.8,-16.51,-17.11,-17.21,0,*6C
1516251685.58,52282,8.06,71630.3,-16.51,-17.11,-17.11,0,*6C
1516251686.88,52283,8.06,71632.3,-16.51,-17.11,-17.11,0,*6D
1516251688.17,52284,8.06,71632.5,-16.53,-17.17,-17.11,0,*6E
1516251689.46,52285,8.06,71638.0,-16.53,-17.17,-17.17,0,*69
1516251690.75,52286,8.06,71638.5,-16.53,-17.25,-17.17,0,*6B
1516251692.04,52287,8.06,71646.0,-16.53,-17.17,-17.25,0,*6A
1516251693.33,52288,8.06,71640.3,-16.51,-17.11,-17.25,0,*61
1516251694.61,52289,8.06,71646.8,-16.53,-17.25,-17.25,0,*65
1516251695.9,52290,8.06,71660.5,-16.53,-17.25,-17.11,0,*6A
1516251697.18,52291,8.06,71660.5,-16.53,-17.11,-17.17,0,*6A
1516251698.48,52292,8.06,71658.0,-16.53,-17.17,-17.17,0,*6F
1516251699.77,52293,8.06,71664.3,-16.51,-17.11,-17.11,0,*6C
1516251701.06,52294,8.0,71660.5,-16.53,-17.17,-17.03,0,*6C
1516251702.35,52295,8.06,71666.3,-16.53,-17.11,-17.11,0,*68
1516251703.66,52296,8.06,71664.5,-16.51,-17.07,-17.07,0,*69
1516251704.96,52297,8.06,71662.5,-16.51,-17.07,-17.07,0,*68
1516251706.26,52298,8.06,71658.5,-16.51,-17.11,-17.07,0,*60
1516251707.55,52299,8.06,71654.3,-16.53,-17.17,-17.25,0,*65
1516251708.85,52300,8.06,71656.8,-16.53,-17.17,-17.11,0,*63
1516251710.13,52301,8.0,71650.8,-16.53,-17.11,-17.03,0,*67
1516251711.43,52302,8.06,71648.8,-16.51,-17.07,-17.11,0,*62
1516251712.7,52303,8.06,71650.8,-16.51,-17.07,-16.97,0,*6C
1516251714.01,52304,8.06,71648.5,-16.51,-17.11,-17.07,0,*64
1516251715.29,52305,8.06,71654.8,-16.53,-17.11,-17.03,0,*63
1516251716.58,52306,8.06,71662.8,-16.53,-17.11,-17.11,0,*63
1516251717.86,52307,8.06,71656.3,-16.51,-16.97,-17.07,0,*68
1516251719.1,52308,8.06,71660.8,-16.51,-16.97,-16.97,0,*6F
1516251720.38,52309,8.06,71660.8,-16.51,-17.07,-16.97,0,*66
1516251721.65,52310,8.06,71666.8,-16.51,-17.11,-16.97,0,*69
1516251722.95,52311,8.06,71666.8,-16.51,-17.11,-17.07,0,*60
1516251724.23,52312,8.06,71662.3,-16.53,-17.11,-17.03,0,*65
1516251725.5,52313,8.06,71658.8,-16.51,-17.11,-16.97,0,*6A
1516251726.8,52314,8.06,71656.8,-16.51,-17.07,-17.11,0,*65
1516251728.1,52315,8.06,71648.5,-16.51,-17.11,-17.17,0,*65
1516251729.39,52316,8.06,71650.5,-16.51,-17.11,-17.11,0,*60
1516251730.68,52317,8.06,71640.0,-16.53,-17.11,-17.17,0,*65
1516251731.98,52318,8.06,71640.0,-16.51,-17.07,-17.07,0,*6E
1516251733.27,52319,8.06,71642.8,-16.53,-17.17,-17.11,0,*6B
1516251734.58,52320,8.0,71638.5,-16.51,-17.11,-17.07,0,*62
1516251735.88,52321,8.06,71644.3,-16.51,-17.11,-17.07,0,*63
1516251737.17,52322,8.06,71640.8,-16.53,-17.03,-17.03,0,*65
1516251738.46,52323,8.06,71646.8,-16.53,-17.03,-17.11,0,*67
1516251739.75,52324,8.06,71648.3,-16.53,-17.03,-17.07,0,*67
1516251741.06,52325,8.06,71650.3,-16.51,-17.11,-17.07,0,*67
1516251742.34,52326,8.06,71654.0,-16.53,-17.11,-17.03,0,*62
1516251743.61,52327,8.06,71656.5,-16.51,-17.07,-16.97,0,*6A
1516251744.86,52328,8.06,71658.0,-16.51,-16.97,-16.97,0,*6D
1516251746.15,52329,8.06,71658.0,-16.53,-17.11,-17.03,0,*6D
1516251747.42,52330,8.06,71662.8,-16.51,-17.07,-16.97,0,*6C
1516251748.67,52331,8.06,71664.5,-16.51,-16.97,-16.97,0,*65
1516251749.91,52332,8.06,71666.3,-16.51,-16.97,-16.97,0,*66
1516251751.16,52333,8.0,71666.0,-16.51,-16.97,-16.97,0,*67
1516251752.44,52334,8.06,71668.0,-16.49,-17.07,-17.07,0,*69
1516251753.68,52335,8.06,71668.8,-16.51,-16.97,-16.97,0,*61
1516251754.96,52336,8.06,71672.3,-16.51,-16.97,-17.07,0,*6A
1516251756.26,52337,8.06,71670.5,-16.51,-17.11,-17.07,0,*64
1516251757.57,52338,8.06,71678.0,-16.51,-17.07,-17.07,0,*6C
1516251758.84,52339,8.06,71678.3,-16.51,-17.07,-16.97,0,*65
1516251760.12,52340,8.06,71676.8,-16.51,-17.07,-16.97,0,*6B
1516251761.39,52341,8.06,71676.0,-16.51,-17.07,-16.97,0,*6A
1516251762.69,52342,8.06,71682.0,-16.51,-17.11,-17.11,0,*61
1516251763.96,52343,8.06,71672.8,-16.51,-17.07,-16.97,0,*68
1516251765.2,52344,8.06,71676.0,-16.51,-16.97,-16.93,0,*63
1516251766.51,52345,8.06,71676.3,-16.51,-17.07,-17.07,0,*66
1516251767.81,52346,8.06,71686.3,-16.51,-17.07,-17.11,0,*62
1516251769.11,52347,8.06,71674.5,-16.51,-17.11,-17.07,0,*63
1516251770.41,52348,8.06,71660.3,-16.51,-17.07,-17.11,0,*6C
1516251771.72,52349,8.06,71652.8,-16.51,-17.07,-17.07,0,*6A
1516251773.02,52350,8.06,71652.5,-16.51,-17.07,-17.07,0,*62
1516251774.32,52351,8.06,71644.0,-16.51,-17.07,-17.11,0,*64
1516251775.62,52352,8.06,71650.3,-16.51,-17.11,-17.11,0,*60
1516251776.92,52353,8.06,71652.3,-16.51,-17.11,-17.07,0,*66
1516251778.21,52354,8.06,71654.0,-16.53,-17.17,-17.17,0,*64
1516251779.51,52355,8.06,71654.0,-16.51,-17.21,-17.21,0,*67
1516251780.81,52356,8.06,71656.5,-16.51,-17.11,-17.21,0,*67
1516251782.09,52357,8.06,71662.3,-16.49,-17.21,-17.07,0,*68
1516251783.34,52358,8.06,71658.3,-16.53,-17.25,-17.31,0,*6D
1516251784.64,52359,8.0,71648.8,-16.51,-17.11,-17.21,0,*68
1516251785.94,52360,8.06,71652.8,-16.51,-17.11,-17.11,0,*61
1516251787.23,52361,8.06,71652.0,-16.53,-17.17,-17.25,0,*63
1516251788.51,52362,8.06,71658.0,-16.53,-17.07,-17.17,0,*60
1516251789.81,52363,8.06,71656.8,-16.51,-17.11,-17.11,0,*62
1516251791.09,52364,8.06,71662.0,-16.53,-17.11,-17.11,0,*67
1516251792.39,52365,8.06,71662.8,-16.51,-17.07,-17.11,0,*63
1516251793.7,52366,8.06,71662.5,-16.51,-17.07,-17.07,0,*67
1516251795.0,52367,8.06,71666.0,-16.51,-17.11,-17.07,0,*61
1516251796.3,52368,8.06,71668.5,-16.53,-17.17,-17.11,0,*6D
1516251797.57,52369,8.06,71670.3,-16.51,-16.97,-17.07,0,*60
1516251798.82,52370,8.06,71668.3,-16.51,-16.97,-16.97,0,*60
1516251800.04,52371,8.06,71668.3,-16.49,-16.97,-16.97,0,*68
1516251801.31,52372,8.06,71672.8,-16.49,-17.11,-17.07,0,*6C
1516251802.59,52373,8.06,71674.8,-16.51,-16.97,-17.07,0,*6B
1516251803.87,52374,8.06,71674.8,-16.51,-16.97,-17.07,0,*6C
1516251805.15,52375,8.06,71674.0,-16.51,-17.07,-16.97,0,*6D
1516251806.44,52376,8.06,71676.0,-16.51,-17.11,-17.03,0,*65
1516251807.69,52377,8.06,71678.0,-16.51,-16.97,-16.97,0,*67
1516251808.96,52378,8.06,71678.8,-16.51,-17.07,-16.93,0,*64
1516251810.2,52379,8.06,71676.0,-16.51,-16.97,-16.93,0,*6D
1516251811.47,52380,8.0,71674.5,-16.51,-17.07,-16.97,0,*67
1516251812.72,52381,8.0,71664.5,-16.49,-16.93,-17.07,0,*6B
1516251813.94,52382,8.06,71664.3,-16.49,-16.97,-16.93,0,*60
1516251815.15,52383,8.0,71672.8,-16.49,-16.93,-16.93,0,*65
1516251816.4,52384,8.06,71670.8,-16.49,-16.93,-17.07,0,*6E
1516251817.62,52385,8.0,71674.8,-16.49,-16.97,-16.97,0,*63
1516251818.9,52386,8.0,71678.5,-16.53,-17.11,-17.17,0,*6D
1516251820.18,52387,8.06,71678.3,-16.51,-16.97,-17.07,0,*60
1516251821.48,52388,8.06,71682.3,-16.51,-17.07,-17.11,0,*60
1516251822.79,52389,8.0,71678.0,-16.51,-17.07,-17.07,0,*66
1516251824.08,52390,8.06,71680.5,-16.51,-17.07,-17.11,0,*69
1516251825.38,52391,8.06,71672.0,-16.51,-17.11,-17.11,0,*6F
1516251826.68,52392,8.06,71674.8,-16.51,-17.07,-17.11,0,*6B
1516251827.95,52393,8.06,71664.8,-16.51,-17.11,-16.97,0,*62
1516251829.22,52394,8.06,71666.8,-16.49,-17.07,-17.11,0,*64
1516251830.5,52395,8.0,71660.5,-16.49,-17.11,-17.07,0,*65
1516251831.77,52396,8.06,71672.0,-16.49,-17.21,-17.11,0,*62
1516251833.04,52397,8.06,71672.5,-16.49,-17.21,-17.25,0,*64
1516251834.34,52398,8.06,71666.8,-16.51,-17.25,-17.25,0,*66
1516251835.61,52399,8.06,71648.0,-16.49,-17.21,-17.11,0,*6D
1516251836.88,52400,8.06,71630.8,-16.49,-17.07,-17.11,0,*6E
1516251838.18,52401,8.06,71628.0,-16.51,-17.21,-17.11,0,*62
1516251839.49,52402,8.06,71628.5,-16.51,-17.21,-17.07,0,*66
1516251840.79,52403,8.06,71624.5,-16.51,-17.07,-17.11,0,*64
1516251842.09,52404,8.0,71620.0,-16.51,-17.11,-17.07,0,*63
1516251843.39,52405,8.06,71628.5,-16.51,-17.11,-17.11,0,*65
1516251844.7,52406,8.06,71634.3,-16.51,-17.07,-17.07,0,*66
1516251845.99,52407,8.0,71636.5,-16.51,-17.11,-17.11,0,*67
1516251847.29,52408,8.06,71644.8,-16.51,-17.11,-17.21,0,*6B
1516251848.59,52409,8.0,71644.8,-16.51,-17.11,-17.07,0,*6E
1516251849.89,52410,8.06,71648.0,-16.51,-17.11,-17.11,0,*61
1516251851.19,52411,8.0,71648.5,-16.51,-17.07,-17.07,0,*60
1516251852.46,52412,8.0,71650.8,-16.51,-17.07,-16.97,0,*6B
1516251853.76,52413,8.06,71652.8,-16.53,-17.17,-17.11,0,*66
1516251855.05,52414,8.06,71654.3,-16.51,-17.11,-17.11,0,*65
1516251856.35,52415,8.06,71654.8,-16.51,-17.07,-17.11,0,*63
1516251857.64,52416,8.06,71654.5,-16.53,-17.11,-17.11,0,*65
1516251858.92,52417,8.06,71658.0,-16.53,-17.11,-17.17,0,*62
1516251860.2,52418,8.06,71656.8,-16.51,-16.97,-17.07,0,*61
1516251861.47,52419,8.06,71654.8,-16.49,-17.07,-17.11,0,*66
1516251862.75,52420,8.0,71658.3,-16.49,-17.07,-17.11,0,*6C
1516251864.03,52421,8.06,71662.8,-16.49,-17.07,-17.07,0,*6A
1516251865.3,52422,8.06,71660.3,-16.49,-17.07,-17.11,0,*6E
1516251866.6,52423,8.06,71666.0,-16.51,-17.07,-17.11,0,*66
1516251867.87,52424,8.06,71664.0,-16.51,-17.07,-16.97,0,*6E
1516251869.15,52425,8.0,71664.3,-16.51,-17.07,-16.97,0,*6F
1516251870.45,52426,8.0,71664.8,-16.51,-17.07,-17.07,0,*64
1516251871.73,52427,8.06,71668.0,-16.51,-17.07,-16.97,0,*6D
1516251872.97,52428,8.06,71666.8,-16.51,-16.97,-16.97,0,*6A
1516251874.22,52429,8.0,71662.0,-16.51,-16.83,-16.97,0,*6E
1516251875.46,52430,8.06,71662.8,-16.51,-16.93,-16.97,0,*67
1516251876.68,52431,8.0,71658.8,-16.49,-16.97,-16.93,0,*6F
1516251877.92,52432,8.06,71668.0,-16.51,-16.97,-16.97,0,*61
1516251879.14,52433,8.06,71668.0,-16.49,-16.93,-16.97,0,*6D
1516251880.36,52434,8.0,71670.5,-16.49,-16.97,-16.97,0,*6E
1516251881.64,52435,8.0,71664.5,-16.49,-17.07,-17.07,0,*6F
1516251882.92,52436,8.06,71660.3,-16.49,-17.07,-17.07,0,*6C
1516251884.13,52437,8.0,71664.5,-16.49,-16.97,-16.97,0,*6D
1516251885.41,52438,8.06,71660.5,-16.49,-17.07,-17.07,0,*62
1516251886.63,52439,8.06,71664.0,-16.49,-16.97,-16.97,0,*63
1516251887.85,52440,8.06,71664.5,-16.49,-16.97,-16.97,0,*6D
1516251889.07,52441,8.06,71664.3,-16.49,-16.97,-16.97,0,*6C
1516251890.32,52442,8.06,71670.8,-16.49,-16.97,-17.07,0,*67
1516251891.57,52443,8.06,71656.5,-16.49,-16.93,-17.07,0,*62
1516251892.82,52444,8.0,71652.0,-16.49,-17.07,-16.97,0,*61
1516251894.06,52445,8.06,71654.3,-16.49,-17.07,-16.97,0,*60
1516251895.28,52446,8.06,71658.8,-16.49,-16.93,-16.97,0,*6F
1516251896.49,52447,8.06,71648.8,-16.49,-16.93,-16.93,0,*6A
1516251897.7,52448,8.06,71658.3,-16.49,-16.97,-16.93,0,*61
1516251898.92,52449,8.0,71670.5,-16.49,-16.93,-16.93,0,*64
1516251900.13,52450,8.06,71668.3,-16.49,-16.97,-16.93,0,*68
1516251901.38,52451,8.06,71670.0,-16.49,-17.07,-16.97,0,*65
1516251902.62,52452,8.0,71668.3,-16.51,-16.97,-16.97,0,*67
1516251903.84,52453,8.0,71666.5,-16.49,-16.97,-16.97,0,*6F
1516251905.06,52454,8.06,71674.3,-16.49,-16.97,-16.97,0,*68
1516251906.3,52455,8.0,71684.3,-16.49,-17.07,-16.93,0,*65
1516251907.55,52456,8.06,71684.3,-16.49,-17.11,-16.97,0,*65
1516251908.76,52457,8.0,71670.8,-16.49,-16.97,-16.93,0,*6F
1516251909.98,52458,8.06,71676.8,-16.49,-16.97,-16.97,0,*64
1516251911.19,52459,8.06,71680.0,-16.49,-16.97,-16.93,0,*61
1516251912.43,52460,8.06,71676.3,-16.45,-17.03,-16.93,0,*6B
1516251913.68,52461,8.06,71676.5,-16.45,-16.93,-17.07,0,*6E
1516251914.95,52462,8.0,71666.3,-16.49,-17.11,-17.11,0,*6D
1516251916.22,52463,8.0,71666.0,-16.49,-17.07,-17.11,0,*6B
1516251917.5,52464,8.06,71668.0,-16.49,-17.11,-17.07,0,*6C
1516251918.77,52465,8.0,71666.3,-16.49,-17.11,-17.11,0,*6A
1516251920.04,52466,8.06,71674.0,-16.49,-17.07,-17.07,0,*69
1516251921.32,52467,8.06,71680.5,-16.49,-17.11,-17.07,0,*6F
1516251922.59,52468,8.06,71670.8,-16.49,-17.07,-17.25,0,*67
1516251923.86,52469,8.06,71668.3,-16.49,-17.25,-17.25,0,*66
1516251925.13,52470,8.0,71666.8,-16.49,-17.17,-17.25,0,*6F
1516251926.4,52471,8.06,71666.0,-16.49,-17.21,-17.21,0,*6F
1516251927.68,52472,8.06,71658.8,-16.49,-17.21,-17.11,0,*6F
1516251928.95,52473,8.06,71656.5,-16.49,-17.21,-17.11,0,*6E
1516251930.22,52474,8.0,71666.5,-16.49,-17.11,-17.11,0,*6A
1516251931.49,52475,8.06,71666.8,-16.45,-17.07,-17.03,0,*63
1516251932.77,52476,8.06,71668.0,-16.49,-17.07,-17.07,0,*68
1516251934.05,52477,8.06,71660.3,-16.49,-17.07,-17.07,0,*69
1516251935.32,52478,8.06,71640.3,-16.45,-17.07,-17.17,0,*6B
1516251936.59,52479,8.0,71628.3,-16.49,-17.11,-17.07,0,*60
1516251937.86,52480,8.0,71634.8,-16.49,-17.21,-17.21,0,*61
1516251939.14,52481,8.06,71646.5,-16.49,-17.25,-17.21,0,*64
1516251940.41,52482,8.06,71632.5,-16.49,-17.21,-17.21,0,*63
1516251941.68,52483,8.0,71636.3,-16.49,-17.21,-17.11,0,*61
1516251942.95,52484,8.0,71630.5,-16.49,-17.25,-17.21,0,*61
1516251944.22,52485,8.06,71626.0,-16.45,-17.21,-17.21,0,*68
1516251945.49,52486,8.06,71626.0,-16.49,-17.21,-17.21,0,*67
1516251946.77,52487,8.06,71628.3,-16.49,-17.25,-17.21,0,*62
1516251948.04,52488,8.06,71628.8,-16.49,-17.21,-17.21,0,*69
1516251949.31,52489,8.06,71634.3,-16.49,-17.21,-17.25,0,*6C
1516251950.58,52490,8.06,71634.0,-16.49,-17.21,-17.21,0,*60
1516251951.85,52491,8.06,71646.3,-16.49,-17.21,-17.21,0,*61
1516251953.12,52492,8.06,71640.3,-16.49,-17.11,-17.11,0,*62
1516251954.42,52493,8.0,71624.5,-16.51,-17.11,-17.11,0,*6A
1516251955.71,52494,8.06,71620.8,-16.51,-17.11,-17.25,0,*6A
1516251956.98,52495,8.06,71650.3,-16.49,-17.11,-17.25,0,*62
1516251958.24,52496,8.0,71622.3,-16.49,-17.11,-17.21,0,*65
1516251959.54,52497,8.0,71620.5,-16.51,-17.25,-17.25,0,*6E
1516251960.81,52498,8.06,71622.3,-16.49,-17.21,-17.25,0,*6C
1516251962.08,52499,8.0,71596.8,-16.45,-17.21,-17.17,0,*60
1516251963.37,52500,8.06,71600.8,-16.51,-17.21,-17.25,0,*65
1516251964.63,52501,8.06,71594.3,-16.53,-17.31,-17.25,0,*67
1516251965.93,52502,8.0,71592.5,-16.51,-17.25,-17.21,0,*67
1516251967.2,52503,8.0,71596.3,-16.49,-17.11,-17.21,0,*68
1516251968.46,52504,8.0,71594.0,-16.49,-17.21,-17.25,0,*68
1516251969.74,52505,8.0,71598.0,-16.49,-17.25,-17.21,0,*69
1516251971.01,52506,8.06,71622.3,-16.49,-17.21,-17.21,0,*6E
1516251972.28,52507,8.06,71614.5,-16.49,-17.25,-17.25,0,*6F
1516251973.55,52508,8.06,71618.5,-16.49,-17.21,-17.21,0,*60
1516251974.82,52509,8.06,71606.0,-16.49,-17.21,-17.25,0,*65
1516251976.12,52510,8.06,71614.5,-16.51,-17.25,-17.21,0,*64
1516251977.41,52511,8.06,71616.8,-16.51,-17.25,-17.25,0,*61
1516251978.71,52512,8.06,71604.3,-16.51,-17.21,-17.25,0,*66
1516251980.01,52513,8.0,71598.8,-16.51,-17.25,-17.21,0,*67
1516251981.31,52514,8.0,71596.3,-16.51,-17.21,-17.25,0,*60
1516251982.61,52515,8.06,71592.8,-16.51,-17.21,-17.21,0,*65
1516251983.9,52516,8.06,71612.8,-16.51,-17.25,-17.21,0,*62
1516251985.2,52517,8.06,71602.5,-16.51,-17.21,-17.21,0,*67
1516251986.48,52518,8.06,71586.8,-16.51,-17.35,-17.21,0,*6D
1516251987.78,52519,8.0,71606.3,-16.51,-17.21,-17.21,0,*69
1516251989.08,52520,8.0,71600.3,-16.51,-17.21,-17.25,0,*67
1516251990.34,52521,8.0,71604.8,-16.49,-17.21,-17.25,0,*6F
1516251991.64,52522,8.0,71600.0,-16.51,-17.21,-17.21,0,*61
1516251992.94,52523,8.0,71600.0,-16.51,-17.21,-17.21,0,*60
1516251994.24,52524,8.06,71590.8,-16.51,-17.21,-17.25,0,*63
1516251995.51,52525,8.06,71592.8,-16.49,-17.25,-17.21,0,*6B
1516251996.81,52526,8.0,71600.3,-16.51,-17.25,-17.25,0,*65
1516251998.1,52527,8.06,71598.8,-16.51,-17.21,-17.17,0,*61
1516251999.36,52528,8.0,71588.0,-16.53,-17.31,-17.25,0,*6C
1516252000.65,52529,8.06,71592.0,-16.51,-17.25,-17.25,0,*6A
1516252001.91,52530,8.0,71608.8,-16.53,-17.31,-17.11,0,*62
1516252003.17,52531,8.0,71610.5,-16.53,-17.31,-17.25,0,*64
1516252004.47,52532,8.0,71622.3,-16.51,-17.21,-17.21,0,*60
1516252005.76,52533,8.0,71634.3,-16.51,-17.25,-17.25,0,*61
1516252007.06,52534,8.06,71634.5,-16.51,-17.25,-17.21,0,*62
1516252008.32,52535,8.06,71638.5,-16.53,-17.25,-17.31,0,*60
1516252009.62,52536,8.06,71638.5,-16.51,-17.21,-17.21,0,*64
1516252010.91,52537,8.06,71642.3,-16.51,-17.11,-17.25,0,*62
1516252012.21,52538,8.0,71646.3,-16.51,-17.11,-17.11,0,*6A
1516252013.5,52539,8.0,71644.5,-16.51,-17.11,-17.21,0,*68
1516252014.76,52540,8.0,71640.8,-16.53,-17.25,-17.31,0,*62
1516252016.06,52541,8.0,71646.0,-16.51,-17.21,-17.21,0,*64
1516252017.36,52542,8.06,71646.5,-16.51,-17.21,-17.11,0,*64
1516252018.62,52543,8.0,71648.0,-16.53,-17.31,-17.25,0,*61
1516252019.92,52544,8.0,71644.5,-16.51,-17.25,-17.21,0,*65
1516252021.22,52545,8.06,71642.5,-16.51,-17.21,-17.11,0,*63
1516252022.52,52546,8.0,71642.8,-16.51,-17.07,-17.07,0,*63
1516252023.81,52547,8.06,71656.8,-16.53,-17.17,-17.17,0,*60
1516252025.11,52548,8.0,71650.0,-16.51,-17.07,-17.11,0,*6A
1516252026.4,52549,8.0,71644.8,-16.53,-17.11,-17.11,0,*6E
1516252027.7,52550,8.0,71648.3,-16.51,-17.07,-17.07,0,*64
1516252028.99,52551,8.0,71644.5,-16.53,-17.11,-17.11,0,*67
1516252030.3,52552,8.0,71644.5,-16.51,-17.07,-17.07,0,*66
1516252031.58,52553,8.0,71646.5,-16.53,-17.11,-17.17,0,*63
1516252032.88,52554,8.0,71644.8,-16.51,-17.07,-17.07,0,*60
1516252034.13,52555,8.06,71636.0,-16.51,-16.97,-16.97,0,*61
1516252035.42,52556,8.0,71628.0,-16.53,-17.17,-17.03,0,*65
1516252036.71,52557,8.06,71626.8,-16.53,-17.03,-17.11,0,*62
1516252037.99,52558,8.0,71650.8,-16.51,-16.97,-17.07,0,*64
1516252039.26,52559,8.0,71656.8,-16.51,-17.11,-16.97,0,*62
1516252040.56,52560,8.0,71644.3,-16.51,-17.07,-17.11,0,*60
1516252041.86,52561,8.06,71644.0,-16.51,-17.07,-17.11,0,*61
1516252043.15,52562,8.0,71656.3,-16.53,-17.11,-17.03,0,*64
1516252044.45,52563,8.06,71652.0,-16.51,-17.07,-17.07,0,*64
1516252045.76,52564,8.0,71656.0,-16.51,-17.07,-17.07,0,*63
1516252047.05,52565,8.0,71656.5,-16.53,-17.11,-17.11,0,*60
1516252048.29,52566,8.0,71658.3,-16.51,-16.97,-16.97,0,*61
1516252049.58,52567,8.0,71648.8,-16.53,-17.11,-17.11,0,*62
1516252050.82,52568,8.0,71658.8,-16.51,-16.97,-16.97,0,*6F
1516252052.09,52569,8.0,71656.8,-16.51,-17.07,-16.97,0,*66
1516252053.37,52570,8.0,71654.3,-16.51,-16.97,-17.07,0,*6E
1516252054.67,52571,8.06,71666.8,-16.51,-17.07,-17.11,0,*60
1516252055.98,52572,8.0,71666.8,-16.51,-17.11,-17.07,0,*63
1516252057.25,52573,8.0,71674.0,-16.51,-17.07,-16.97,0,*6D
1516252058.56,52574,8.0,71660.0,-16.51,-17.07,-17.07,0,*62
1516252059.85,52575,8.0,71656.5,-16.53,-17.17,-17.17,0,*61
1516252061.15,52576,8.0,71650.5,-16.51,-17.11,-17.07,0,*67
1516252062.45,52577,8.0,71644.8,-16.51,-17.11,-17.11,0,*61
1516252063.75,52578,8.0,71646.8,-16.51,-17.25,-17.11,0,*69
1516252065.04,52579,8.0,71642.8,-16.51,-17.21,-17.21,0,*6F
1516252066.32,52580,8.0,71638.5,-16.49,-17.21,-17.21,0,*60
1516252067.59,52581,8.0,71640.0,-16.49,-17.25,-17.25,0,*61
1516252068.83,52582,8.0,71640.8,-16.49,-17.35,-17.25,0,*63
1516252070.1,52583,8.0,71630.3,-16.49,-17.25,-17.21,0,*67
1516252071.37,52584,8.06,71630.3,-16.49,-17.25,-17.25,0,*64
1516252072.67,52585,8.0,71630.0,-16.51,-17.21,-17.25,0,*68
1516252073.97,52586,8.0,71634.3,-16.51,-17.25,-17.25,0,*6F
1516252075.27,52587,8.0,71632.5,-16.51,-17.21,-17.21,0,*6E
1516252076.56,52588,8.0,71628.0,-16.51,-17.21,-17.25,0,*65
1516252077.86,52589,8.0,71642.8,-16.51,-17.21,-17.21,0,*60
1516252079.15,52590,8.0,71648.3,-16.53,-17.17,-17.25,0,*6B
1516252080.45,52591,8.0,71650.0,-16.51,-17.07,-17.21,0,*6D
1516252081.74,52592,8.0,71652.5,-16.53,-17.17,-17.25,0,*69
1516252083.02,52593,8.0,71654.3,-16.53,-17.11,-17.21,0,*6A
1516252084.32,52594,8.0,71648.0,-16.51,-17.21,-17.21,0,*6C
1516252085.61,52595,8.0,71652.8,-16.53,-17.25,-17.25,0,*6F
1516252086.89,52596,8.06,71654.5,-16.53,-17.25,-17.25,0,*6C
1516252088.19,52597,8.0,71646.8,-16.51,-17.25,-17.21,0,*6B
1516252089.48,52598,8.0,71642.3,-16.53,-17.25,-17.25,0,*62
1516252090.77,52599,8.0,71638.8,-16.51,-17.21,-17.25,0,*65
1516252092.07,52600,8.0,71638.0,-16.51,-17.25,-17.21,0,*66
1516252093.37,52601,8.0,71662.3,-16.51,-17.21,-17.21,0,*63
1516252094.67,52602,8.0,71658.5,-16.51,-17.25,-17.25,0,*60
1516252095.89,52603,8.0,71660.5,-16.53,-17.31,-17.31,0,*63
1516252097.12,52604,8.0,71652.8,-16.53,-17.31,-17.31,0,*64
1516252098.38,52605,8.0,71640.0,-16.53,-17.31,-17.25,0,*60
1516252099.68,52606,8.0,71640.8,-16.51,-17.25,-17.21,0,*60
1516252100.97,52607,8.0,71636.0,-16.51,-17.21,-17.25,0,*61
1516252102.23,52608,8.0,71640.8,-16.53,-17.25,-17.31,0,*6D
1516252103.53,52609,8.0,71632.5,-16.51,-17.25,-17.21,0,*6F
1516252104.83,52610,8.06,71642.3,-16.51,-17.11,-17.21,0,*60
1516252106.11,52611,8.0,71632.3,-16.53,-17.25,-17.25,0,*60
1516252107.37,52612,8.0,71634.5,-16.53,-17.31,-17.25,0,*66
1516252108.65,52613,8.0,71644.8,-16.51,-17.25,-17.35,0,*61
1516252109.95,52614,8.0,71646.3,-16.51,-17.21,-17.21,0,*67
1516252111.2,52615,8.0,71626.5,-16.53,-17.21,-17.31,0,*65
1516252112.49,52616,8.0,71624.3,-16.53,-17.25,-17.17,0,*66
1516252113.72,52617,8.0,71634.5,-16.53,-17.31,-17.31,0,*66